Temp
-13 -14 -14 -14 -14 -14 -14 -14 -15 -15 -15 -15 -16 -17 -17 -17 -17 -17 -17 -18 -18 -18 -19 -19 -19 -19 -19 -20 -20 -20 -20 -20 -20 -20 -20 -20 -20 -20 -20 -20 -20 -20 -20
-14 -14 -14 -14 -15 -15 -15 -15 -15 -16 -16 -16 -17 -17 -17 -18 -18 -18 -18 -19 -19 -19 -19 -19 -20 -20 -21 -20 -20 -20 -20 -21 -21 -20 -20 -20 -20 -21 -21 -21 -21 -21 -20
-14 -15 -16 -15 -15 -15 -15 -16 -16 -17 -17 -17 -17 -17 -18 -18 -19 -19 -19 -19 -19 -19 -20 -20 -21 -20 -20 -20 -20 -20 -21 -21 -21 -21 -21 -21 -21 -21 -21 -21 -21 -20 -21
-15 -16 -16 -16 -16 -17 -17 -17 -17 -17 -17 -17 -18 -18 -19 -19 -19 -20 -19 -19 -20 -21 -21 -20 -20 -20 -20 -20 -20 -21 -21 -21 -21 -21 -22 -22 -22 -22 -22 -21 -21 -21 -21
-17 -16 -16 -16 -17 -17 -17 -17 -17 -17 -18 -18 -19 -19 -19 -19 -20 -20 -20 -20 -21 -20 -21 -20 -21 -20 -20 -21 -21 -21 -21 -22 -22 -22 -22 -22 -22 -22 -22 -22 -22 -22 -22
-16 -17 -17 -17 -17 -17 -17 -18 -18 -19 -19 -19 -19 -19 -20 -20 -20 -20 -21 -21 -21 -20 -21 -21 -21 -21 -21 -22 -22 -22 -22 -22 -23 -23 -23 -23 -23 -24 -24 -23 -23 -23 -22
-17 -18 -18 -18 -18 -18 -19 -20 -20 -20 -20 -20 -20 -20 -20 -20 -21 -21 -21 -21 -21 -21 -21 -22 -21 -22 -22 -22 -22 -23 -23 -24 -24 -24 -25 -26 -25 -24 -25 -24 -24 -24 -23
-18 -18 -18 -19 -19 -20 -20 -20 -20 -20 -19 -19 -20 -21 -21 -21 -20 -21 -21 -21 -21 -22 -22 -22 -22 -22 -22 -22 -23 -24 -24 -25 -25 -26 -26 -25 -26 -26 -26 -26 -25 -25 -25
-19 -19 -20 -20 -20 -20 -20 -20 -20 -19 -20 -21 -21 -21 -21 -21 -21 -21 -21 -22 -22 -22 -22 -22 -23 -23 -23 -24 -24 -25 -25 -26 -26 -26 -26 -27 -27 -28 -28 -28 -28 -29 -30
-20 -20 -21 -21 -20 -20 -20 -20 -20 -20 -21 -21 -21 -21 -21 -21 -22 -22 -22 -22 -22 -22 -23 -23 -23 -24 -25 -25 -26 -26 -26 -26 -26 -26 -26 -27 -28 -29 -30 -32 -33 -33 -34
-21 -21 -21 -20 -20 -20 -20 -21 -21 -21 -21 -21 -22 -22 -22 -22 -22 -22 -22 -22 -22 -23 -23 -24 -25 -25 -26 -26 -27 -27 -27 -27 -27 -27 -28 -28 -29 -30 -32 -34 -35 -36 -35
-21 -21 -21 -21 -21 -21 -21 -21 -21 -22 -22 -22 -22 -22 -22 -22 -22 -23 -23 -23 -23 -23 -24 -25 -26 -26 -27 -27 -28 -28 -28 -29 -29 -29 -30 -31 -32 -34 -35 -35 -36 -36 -36
-21 -21 -21 -21 -21 -21 -21 -22 -22 -22 -22 -22 -22 -22 -23 -23 -23 -23 -23 -24 -24 -25 -26 -27 -27 -28 -28 -29 -29 -29 -30 -30 -31 -31 -32 -34 -35 -36 -37 -36 -36 -36 -36
-21 -22 -21 -21 -22 -22 -22 -22 -22 -22 -22 -22 -22 -22 -23 -23 -24 -24 -24 -25 -26 -27 -27 -28 -28 -29 -29 -29 -30 -30 -31 -32 -33 -34 -35 -36 -36 -37 -37 -37 -36 -36 -36
-22 -22 -22 -22 -22 -22 -22 -23 -23 -22 -22 -22 -23 -23 -23 -24 -24 -25 -25 -26 -26 -27 -27 -28 -28 -29 -29 -29 -30 -31 -32 -34 -36 -36 -36 -37 -37 -38 -38 -37 -37 -37 -37
-22 -22 -22 -22 -22 -23 -23 -23 -23 -23 -23 -23 -23 -23 -24 -24 -25 -25 -26 -27 -28 -28 -29 -29 -29 -29 -30 -31 -31 -32 -35 -36 -37 -37 -37 -37 -37 -37 -37 -38 -38 -38 -37
-22 -22 -22 -23 -23 -23 -23 -23 -23 -23 -24 -24 -24 -24 -25 -25 -26 -27 -27 -28 -29 -29 -29 -30 -30 -31 -32 -32 -34 -35 -36 -37 -37 -37 -37 -37 -38 -38 -38 -38 -38 -38 -38
-23 -23 -23 -23 -23 -23 -23 -23 -23 -24 -25 -25 -25 -25 -26 -27 -28 -28 -29 -29 -30 -31 -31 -31 -32 -32 -33 -35 -36 -37 -37 -37 -37 -37 -38 -38 -38 -38 -38 -39 -39 -38 -38
-23 -23 -23 -23 -23 -23 -23 -23 -24 -24 -25 -26 -27 -27 -27 -28 -29 -30 -30 -30 -31 -31 -32 -32 -33 -34 -35 -36 -37 -37 -37 -37 -38 -38 -39 -39 -39 -39 -39 -39 -39 -39 -39
-23 -23 -23 -23 -23 -23 -24 -24 -25 -25 -26 -26 -27 -28 -29 -30 -30 -31 -31 -32 -32 -32 -32 -33 -35 -36 -37 -37 -37 -37 -38 -38 -39 -39 -39 -40 -40 -40 -39 -39 -39 -39 -39
-23 -23 -23 -23 -24 -24 -24 -25 -25 -26 -26 -27 -28 -29 -30 -30 -30 -31 -31 -32 -32 -33 -34 -35 -36 -37 -37 -37 -38 -38 -39 -39 -39 -40 -40 -40 -41 -41 -41 -40 -40 -40 -39
-23 -23 -24 -24 -24 -25 -25 -25 -26 -26 -27 -28 -29 -30 -30 -31 -31 -31 -32 -33 -33 -34 -36 -37 -37 -38 -38 -39 -39 -39 -39 -40 -40 -40 -40 -41 -41 -41 -41 -41 -41 -40 -40
-24 -24 -24 -25 -25 -25 -25 -26 -26 -27 -28 -29 -30 -30 -31 -31 -32 -32 -33 -34 -35 -36 -37 -38 -38 -39 -39 -39 -40 -40 -40 -40 -40 -40 -40 -41 -41 -41 -42 -42 -42 -41 -41
-24 -25 -25 -25 -25 -25 -26 -27 -27 -28 -29 -29 -30 -31 -31 -32 -33 -33 -34 -36 -37 -37 -38 -39 -39 -39 -40 -40 -41 -41 -41 -41 -41 -41 -41 -41 -42 -42 -42 -43 -42 -41 -41
-25 -25 -25 -25 -26 -26 -27 -27 -28 -29 -30 -31 -31 -32 -32 -33 -34 -35 -36 -37 -38 -38 -39 -40 -40 -41 -41 -41 -41 -41 -41 -42 -41 -41 -41 -42 -42 -42 -43 -43 -42 -42 -42
-25 -25 -26 -26 -26 -27 -27 -28 -29 -30 -31 -32 -32 -33 -34 -35 -36 -37 -38 -38 -39 -39 -40 -41 -41 -42 -42 -42 -42 -42 -42 -42 -42 -43 -42 -43 -43 -43 -43 -43 -43 -42 -42
Height
5755 5753 5750 5747 5744 5741 5737 5733 5730 5726 5722 5718 5714 5711 5705 5701 5696 5691 5687 5681 5675 5670 5664 5658 5652 5644 5637 5630 5622 5615 5609 5603 5604 5608 5593 5584 5580 5574 5568 5561 5557 5553 5549
5746 5742 5740 5737 5734 5730 5727 5724 5719 5715 5710 5707 5704 5700 5695 5690 5684 5679 5673 5668 5661 5654 5647 5639 5633 5626 5620 5614 5608 5600 5591 5584 5579 5583 5572 5565 5555 5549 5543 5539 5534 5529 5525
5736 5733 5730 5726 5723 5720 5717 5714 5709 5705 5702 5697 5691 5686 5680 5675 5671 5666 5659 5652 5645 5638 5630 5624 5618 5612 5605 5598 5589 5580 5572 5564 5556 5551 5550 5539 5530 5522 5519 5515 5511 5508 5502
5725 5722 5719 5716 5713 5709 5706 5703 5698 5693 5688 5683 5678 5674 5669 5663 5657 5651 5644 5636 5627 5621 5615 5609 5602 5593 5584 5578 5569 5560 5550 5542 5534 5525 5519 5514 5505 5497 5489 5486 5489 5479 5473
5715 5712 5710 5706 5703 5700 5695 5691 5686 5682 5677 5672 5667 5661 5656 5648 5641 5635 5627 5620 5614 5607 5599 5591 5581 5572 5564 5557 5547 5536 5526 5517 5507 5500 5493 5485 5476 5470 5460 5455 5449 5446 5448
5707 5704 5701 5697 5693 5688 5684 5679 5675 5669 5665 5659 5653 5646 5640 5633 5627 5620 5614 5607 5598 5589 5580 5571 5562 5555 5544 5534 5523 5512 5500 5490 5481 5472 5465 5456 5446 5433 5426 5419 5409 5401 5399
5695 5692 5688 5684 5681 5676 5671 5667 5661 5656 5650 5645 5639 5632 5625 5618 5612 5606 5598 5589 5579 5570 5562 5554 5543 5533 5522 5513 5503 5492 5479 5466 5454 5443 5436 5423 5416 5399 5387 5377 5364 5348 5341
5684 5681 5677 5673 5670 5665 5660 5655 5650 5644 5638 5632 5625 5619 5612 5605 5599 5593 5583 5573 5563 5553 5543 5532 5522 5512 5500 5491 5482 5471 5460 5448 5437 5425 5408 5393 5375 5362 5342 5330 5319 5307 5306
5674 5670 5666 5662 5658 5654 5649 5643 5638 5631 5624 5617 5612 5605 5598 5591 5583 5575 5567 5557 5545 5535 5524 5512 5501 5491 5478 5467 5460 5451 5441 5431 5419 5403 5384 5366 5348 5330 5310 5292 5284 5267 5258
5663 5660 5656 5652 5648 5643 5638 5632 5624 5618 5611 5604 5598 5591 5583 5575 5567 5556 5547 5538 5527 5516 5505 5492 5479 5469 5458 5446 5435 5425 5418 5407 5395 5386 5372 5352 5330 5311 5290 5267 5250 5237 5228
5654 5651 5646 5642 5636 5631 5624 5617 5611 5605 5599 5592 5584 5577 5568 5557 5546 5536 5526 5517 5508 5497 5485 5474 5461 5449 5437 5425 5412 5399 5386 5375 5365 5349 5337 5323 5308 5289 5271 5254 5237 5221 5211
5645 5640 5636 5629 5623 5617 5611 5605 5598 5592 5584 5577 5568 5558 5548 5538 5528 5518 5507 5496 5486 5477 5466 5453 5442 5431 5419 5405 5391 5376 5360 5343 5330 5320 5306 5292 5277 5265 5253 5239 5228 5215 5200
5633 5627 5621 5616 5611 5605 5599 5592 5584 5577 5568 5559 5550 5540 5529 5519 5509 5499 5489 5478 5466 5455 5445 5434 5423 5411 5400 5386 5369 5352 5336 5319 5305 5292 5280 5266 5252 5240 5230 5222 5213 5202 5192
5620 5615 5611 5605 5598 5591 5584 5577 5569 5560 5551 5542 5533 5522 5512 5501 5491 5480 5470 5459 5448 5438 5428 5416 5404 5391 5376 5362 5348 5331 5314 5296 5280 5267 5257 5244 5233 5222 5212 5203 5197 5190 5182
5609 5604 5597 5591 5585 5578 5569 5561 5552 5544 5534 5524 5514 5505 5495 5483 5471 5460 5449 5439 5428 5417 5406 5395 5383 5369 5355 5340 5325 5309 5292 5276 5262 5248 5236 5225 5215 5207 5198 5189 5181 5175 5167
5597 5591 5585 5578 5570 5562 5554 5545 5536 5526 5515 5506 5496 5487 5476 5465 5454 5441 5430 5418 5406 5395 5385 5372 5359 5344 5328 5315 5302 5288 5271 5255 5242 5230 5218 5207 5199 5193 5186 5178 5168 5162 5156
5584 5578 5570 5563 5556 5548 5539 5529 5518 5508 5498 5487 5477 5467 5457 5447 5434 5422 5411 5399 5386 5374 5360 5346 5332 5318 5305 5291 5276 5263 5251 5237 5223 5211 5201 5192 5185 5178 5171 5165 5157 5151 5146
5571 5564 5557 5549 5540 5531 5522 5512 5502 5492 5480 5467 5456 5447 5437 5426 5414 5403 5391 5379 5367 5351 5336 5322 5310 5296 5281 5266 5254 5241 5230 5218 5206 5195 5186 5177 5169 5163 5157 5151 5145 5140 5136
5558 5550 5541 5533 5524 5514 5505 5495 5484 5473 5462 5451 5438 5425 5417 5406 5394 5381 5369 5355 5341 5328 5315 5302 5287 5273 5259 5246 5234 5222 5210 5200 5189 5179 5169 5161 5153 5147 5143 5137 5133 5129 5125
5543 5534 5525 5516 5507 5496 5486 5476 5465 5455 5444 5433 5421 5410 5398 5388 5375 5362 5348 5334 5320 5307 5293 5279 5265 5251 5238 5225 5214 5202 5192 5180 5169 5159 5150 5141 5135 5129 5126 5123 5120 5119 5115
5527 5518 5508 5499 5489 5479 5468 5458 5448 5437 5426 5414 5402 5389 5377 5366 5354 5340 5327 5313 5299 5284 5269 5255 5242 5229 5217 5205 5194 5183 5172 5160 5148 5138 5129 5121 5114 5110 5107 5106 5107 5106 5105
5510 5501 5491 5481 5471 5461 5450 5440 5429 5418 5407 5395 5383 5369 5356 5343 5330 5317 5303 5289 5274 5258 5244 5232 5221 5208 5196 5185 5173 5162 5151 5140 5129 5120 5112 5104 5099 5095 5093 5092 5093 5094 5093
5493 5483 5474 5463 5453 5443 5433 5422 5411 5399 5387 5375 5362 5350 5336 5322 5308 5294 5280 5266 5251 5237 5224 5212 5201 5190 5177 5164 5151 5140 5131 5121 5112 5104 5099 5093 5087 5083 5081 5080 5082 5083 5084
5475 5465 5456 5446 5436 5426 5415 5403 5391 5379 5366 5354 5340 5327 5313 5299 5285 5270 5256 5243 5230 5217 5204 5192 5180 5169 5158 5146 5134 5123 5113 5104 5098 5092 5085 5081 5076 5073 5072 5071 5072 5073 5075
5459 5449 5439 5430 5419 5408 5396 5384 5370 5358 5345 5331 5318 5304 5290 5275 5260 5246 5233 5221 5209 5197 5184 5171 5160 5151 5140 5128 5117 5107 5098 5091 5084 5079 5074 5070 5066 5064 5063 5063 5064 5065 5067
5444 5434 5424 5413 5402 5389 5377 5364 5350 5337 5323 5309 5295 5280 5265 5250 5237 5224 5212 5200 5187 5175 5163 5152 5142 5133 5123 5114 5103 5094 5085 5078 5072 5068 5063 5059 5056 5054 5054 5054 5055 5057 5059
Wind_Speed
50 50 48 45 45 47 47 45 43 45 47 47 48 45 47 49 51 54 56 55 55 56 59 65 69 72 70 65 64 65 69 72 71 67 72 75 75 75 74 74 73 71 68
47 45 42 43 41 45 46 46 48 47 47 48 47 48 49 52 53 53 52 53 57 63 68 70 65 62 62 66 70 72 75 78 79 75 77 78 81 82 81 79 77 70 66
47 47 44 43 43 45 49 52 48 46 47 49 51 50 49 49 51 53 56 61 65 66 63 60 63 66 70 74 75 77 78 81 84 84 81 84 83 80 76 73 73 74 78
44 41 42 43 41 41 45 48 51 52 51 49 49 48 50 52 55 60 63 65 62 59 62 67 70 73 75 78 81 83 84 85 85 82 79 76 77 77 78 80 80 82 84
40 43 43 43 42 44 47 50 52 53 51 51 50 52 54 57 60 64 64 62 62 66 69 73 75 78 81 82 83 85 87 85 83 82 81 81 82 85 89 91 94 94 92
46 44 43 46 47 48 52 52 50 49 50 52 55 57 60 63 65 63 62 64 68 71 74 77 79 81 83 84 85 85 84 85 83 82 84 87 90 94 96 100 104 107 110
44 43 42 46 49 49 48 48 50 51 54 57 61 63 63 61 60 62 66 69 72 75 78 81 82 84 85 84 83 83 81 82 86 88 89 91 95 102 106 111 114 120 123
46 45 50 50 49 49 50 51 53 56 60 62 60 57 58 61 64 68 70 72 75 78 81 84 85 85 84 85 83 81 81 83 86 90 95 101 105 110 115 119 122 125 124
45 46 45 44 46 48 51 54 58 61 57 54 58 62 65 67 68 71 73 75 79 81 82 84 85 85 85 85 84 83 83 85 89 94 99 103 107 111 113 116 110 106 97
42 41 42 44 48 53 57 60 60 54 57 60 64 66 68 70 72 74 77 80 80 82 82 84 84 84 84 84 87 88 90 93 96 97 100 104 108 108 105 98 92 84 76
37 41 45 50 54 59 56 51 53 58 61 64 67 69 72 74 77 79 80 81 83 83 83 82 82 83 85 86 89 93 96 99 100 104 108 110 106 100 92 83 73 71 70
42 48 53 56 52 48 52 56 60 63 65 67 71 73 75 78 79 80 80 82 83 83 82 82 83 84 85 88 92 95 99 103 107 109 108 102 93 83 77 67 62 61 63
49 53 49 46 51 54 58 61 63 66 68 71 73 76 78 79 79 80 81 82 82 81 81 81 83 85 87 90 93 98 102 106 107 104 98 87 82 77 64 59 57 56 56
47 45 50 53 57 60 62 64 67 70 72 75 78 79 79 79 79 80 80 80 80 80 81 82 84 88 92 94 98 102 104 102 97 91 83 81 78 66 59 59 56 53 51
47 51 55 58 60 62 65 68 71 74 76 78 79 79 79 79 79 80 81 81 82 84 85 87 90 94 96 100 104 105 100 90 83 83 82 78 67 58 57 57 54 51 50
53 56 59 61 63 65 68 71 74 76 78 79 79 79 79 79 80 81 82 83 84 86 88 92 95 99 102 105 105 99 87 82 83 82 77 68 59 57 56 54 52 48 47
56 59 61 63 65 67 70 74 76 77 77 78 78 77 78 78 80 82 83 84 86 89 93 97 100 102 104 102 95 87 83 82 80 74 66 61 60 59 56 51 49 46 42
60 61 63 66 68 71 73 75 76 76 75 75 77 78 79 80 81 83 84 87 89 92 96 99 101 101 98 91 86 84 82 77 71 65 64 64 63 59 53 49 46 43 39
61 64 66 69 72 74 75 75 75 74 74 75 76 79 81 81 83 84 87 91 95 97 100 102 100 94 89 86 84 80 76 72 69 69 69 66 61 57 51 49 45 41 38
64 67 70 71 72 73 73 74 74 74 74 76 78 80 81 82 84 86 90 95 99 102 104 99 92 89 86 83 79 76 75 75 73 71 68 67 64 58 52 46 43 38 35
66 69 70 70 71 71 71 72 73 75 77 79 81 83 85 87 90 93 97 100 104 104 98 94 89 84 81 79 79 79 77 76 75 73 70 63 55 48 45 41 38 35 33
69 70 70 70 70 71 71 73 75 78 81 83 84 86 89 93 96 99 102 104 101 96 92 86 82 81 81 81 81 79 78 76 71 64 56 49 44 41 37 35 33 30 29
69 68 69 69 70 72 74 76 80 83 85 86 88 91 94 98 101 104 105 100 95 88 84 82 82 82 82 82 81 80 75 69 61 51 47 44 40 37 33 31 28 26 25
67 68 68 70 72 74 78 81 84 87 89 91 94 97 99 102 105 103 97 91 85 83 84 84 83 83 82 80 77 73 67 58 53 50 45 40 36 33 28 26 24 23 22
67 68 70 72 74 78 82 85 88 90 92 94 97 100 103 104 99 93 87 85 86 85 84 83 82 80 77 74 70 65 58 54 50 46 42 38 33 29 24 22 21 22 20
68 69 71 75 79 84 86 89 91 93 96 99 102 103 99 93 88 86 87 86 85 84 82 79 77 74 71 67 62 56 52 50 47 44 39 34 31 27 22 21 20 20 20
Wind_Direction
274 278 280 283 285 287 288 287 285 286 285 291 299 306 309 309 308 303 298 297 298 296 295 295 297 300 303 304 303 302 301 301 301 299 298 296 295 292 290 289 289 290 290
280 282 283 286 291 296 293 289 288 289 292 297 300 306 305 302 299 296 294 294 293 295 299 303 304 304 301 301 301 299 300 300 300 298 296 295 296 296 294 291 288 286 284
277 290 298 297 292 290 292 294 296 301 305 305 304 300 296 295 295 295 296 296 299 302 302 302 301 301 300 301 302 303 303 303 303 303 302 301 299 298 296 292 291 291 290
280 283 283 283 287 291 292 294 301 303 303 300 299 295 293 294 295 298 300 302 303 301 302 301 301 302 304 305 305 305 305 305 305 305 305 302 299 299 299 298 295 295 295
285 289 291 293 294 294 297 299 300 298 298 295 295 294 295 298 300 303 303 301 301 302 302 304 306 307 306 305 306 308 308 308 307 306 306 307 305 303 302 302 302 299 298
284 288 290 293 292 294 296 296 295 294 295 295 295 298 301 302 302 301 300 301 303 304 306 308 307 306 308 309 310 309 308 307 309 308 307 307 309 308 306 303 302 302 302
290 291 292 293 295 295 293 293 294 296 295 297 300 302 302 301 301 301 302 305 306 308 307 307 309 310 310 309 309 308 310 311 311 312 312 309 307 307 308 310 311 311 311
289 291 293 293 293 292 294 296 295 295 298 301 301 301 301 301 302 304 307 308 308 308 309 310 310 310 309 309 309 311 312 312 312 311 312 313 314 315 315 315 314 312 311
290 289 288 288 290 293 293 294 296 297 300 300 301 303 303 305 306 306 307 309 310 310 309 310 309 310 311 311 311 311 312 312 312 313 315 317 317 317 317 316 314 311 309
285 284 285 288 290 294 295 295 296 297 300 301 302 305 306 306 307 310 311 310 311 311 310 311 311 312 312 312 313 313 312 313 314 314 316 317 318 317 316 313 311 309 307
281 286 289 292 293 295 297 296 297 300 302 304 306 306 308 310 311 311 311 311 310 310 310 311 311 312 313 314 313 314 315 316 317 318 319 319 318 316 313 311 309 309 309
287 290 291 294 296 295 298 301 302 303 305 306 307 309 310 311 311 311 310 309 310 310 311 312 313 313 314 315 315 316 317 319 320 321 321 319 317 314 314 310 308 310 310
289 293 294 295 299 301 302 304 305 306 306 307 309 310 311 311 311 310 310 310 311 312 313 313 314 315 315 315 317 319 320 321 321 320 319 317 316 317 314 311 312 313 313
293 295 298 300 302 303 304 305 306 307 308 309 310 311 311 310 310 310 310 311 312 312 313 315 315 315 317 318 319 320 321 321 319 318 317 317 318 316 314 313 313 314 314
297 299 300 301 303 304 305 306 308 309 309 310 310 309 309 309 310 310 310 311 312 314 315 316 316 317 318 319 320 321 321 318 316 316 316 317 317 315 314 313 314 315 315
299 299 301 303 304 305 307 309 308 308 309 309 309 308 309 310 310 310 312 313 315 316 316 316 317 318 320 320 320 320 317 316 317 317 316 316 315 314 313 313 314 315 315
299 301 302 304 306 308 308 308 308 309 309 308 308 309 310 310 311 312 313 315 315 316 317 318 320 320 320 320 319 317 317 316 316 316 315 314 312 312 312 311 313 313 312
301 302 304 307 308 308 307 308 308 308 309 309 310 311 312 312 313 313 314 315 316 317 318 320 320 320 319 318 317 317 317 317 316 314 312 311 309 310 308 307 310 311 310
304 307 307 307 307 307 308 308 308 309 309 310 312 312 313 313 314 314 315 316 317 318 319 319 319 318 316 317 316 316 317 316 314 312 309 308 307 306 304 303 305 308 306
306 306 306 307 307 307 308 308 308 309 311 311 311 311 312 313 314 315 316 317 317 317 317 318 316 316 316 316 316 317 316 314 312 311 309 307 305 301 297 296 298 301 301
304 305 307 307 307 307 308 308 309 311 312 312 312 313 314 315 315 315 316 316 316 317 317 316 316 316 316 317 316 316 316 315 313 311 310 308 306 300 294 291 292 294 295
307 308 308 309 308 309 310 311 311 312 312 313 313 314 315 315 315 315 315 316 317 316 315 315 316 316 316 316 316 316 316 314 313 313 311 311 311 303 294 288 289 288 288
308 309 309 309 310 310 311 312 312 312 313 314 314 315 315 315 314 314 315 315 315 315 315 315 316 316 316 317 316 316 316 315 314 312 311 310 308 305 296 287 284 281 279
309 309 310 310 311 312 313 313 313 313 314 314 314 314 313 313 314 314 314 314 314 314 315 315 316 316 317 316 316 316 316 315 313 312 310 309 304 298 293 285 280 275 270
309 310 310 311 312 313 313 313 313 314 314 314 313 313 313 313 313 313 314 314 314 314 314 314 315 316 316 316 317 316 315 313 314 313 312 307 300 294 286 279 275 272 264
309 309 311 313 314 314 314 314 314 314 313 313 312 312 313 312 313 314 314 314 314 314 314 314 315 316 317 317 316 315 314 315 316 315 311 306 298 289 279 272 268 264 255